Location: Newark
(45.6833°N, 12.6333°E)
Time: 22:01:50
(UTC+00:00)

N. Korean satellite - Pass Details

Date: 22 November 2019
Orbit: 455 x 507 km, 97.2° (Epoch: 13 December)

Event Time Altitude Azimuth Distance (km) Brightness Sun altitude
Rises 04:50:28 0° 16° (NNE) 2,614 10.3 -15.1°
Reaches altitude 10° 04:52:36 10° 21° (NNE) 1,719 9.4 -14.7°
Maximum altitude 04:56:14 55° 99° (E) 604 7.4 -14.1°
Drops below altitude 10° 04:59:48 10° 179° (S) 1,680 9.5 -13.5°
Sets 05:01:53 0° 184° (S) 2,548 10.4 -13.1°
